Meteo pe oră la Dabrowica

Astăzi, 10 Aprilie, Sâmbătă

Timp Temperatura Precipitaţii Vânt Presiune Umiditate
00:00 +4°C° 0 mm 2 m/s 728 mmHg 78%
01:00 +4°C° 0 mm 2 m/s 728 mmHg 80%
02:00 +4°C° 0 mm 2 m/s 727 mmHg 79%
03:00 +4°C° 0 mm 2 m/s 727 mmHg 79%
04:00 +4°C° 0 mm 2 m/s 727 mmHg 79%
05:00 +4°C° 0 mm 2 m/s 727 mmHg 77%
06:00 +5°C° 0 mm 2 m/s 727 mmHg 76%
07:00 +6°C° 0 mm 2 m/s 727 mmHg 75%
08:00 +7°C° 0 mm 3 m/s 727 mmHg 73%
09:00 +8°C° 0 mm 3 m/s 727 mmHg 71%
10:00 +9°C° 0 mm 3 m/s 727 mmHg 69%
11:00 +9°C° 0 mm 3 m/s 728 mmHg 73%
12:00 +8°C° 0 mm 2 m/s 728 mmHg 77%
13:00 +8°C° 0 mm 2 m/s 728 mmHg 81%
14:00 +9°C° 0 mm 1 m/s 728 mmHg 82%
15:00 +9°C° 0 mm 1 m/s 728 mmHg 83%
16:00 +9°C° 0 mm 1 m/s 729 mmHg 85%
17:00 +8°C° 0 mm 1 m/s 729 mmHg 88%
18:00 +8°C° 0 mm 1 m/s 729 mmHg 90%
19:00 +7°C° 0 mm 1 m/s 729 mmHg 93%
20:00 +7°C° 0 mm 1 m/s 729 mmHg 93%
21:00 +7°C° 0 mm 1 m/s 729 mmHg 93%
22:00 +7°C° 0 mm 1 m/s 729 mmHg 94%
23:00 +6°C° 0 mm 1 m/s 729 mmHg 93%

Mâine, 11 Aprilie, Duminică

Timp Temperatura Precipitaţii Vânt Presiune Umiditate
00:00 +5°C° 0 mm 2 m/s 728 mmHg 92%
01:00 +5°C° 0 mm 2 m/s 728 mmHg 92%
02:00 +6°C° 0 mm 2 m/s 728 mmHg 88%
03:00 +6°C° 0 mm 2 m/s 728 mmHg 84%
04:00 +5°C° 0 mm 3 m/s 727 mmHg 80%
05:00 +5°C° 0 mm 3 m/s 727 mmHg 79%
06:00 +6°C° 0 mm 4 m/s 727 mmHg 78%
07:00 +6°C° 0 mm 4 m/s 727 mmHg 77%
08:00 +7°C° 0 mm 5 m/s 727 mmHg 74%
09:00 +8°C° 0 mm 5 m/s 727 mmHg 71%
10:00 +9°C° 0 mm 5 m/s 727 mmHg 68%
11:00 +10°C° 0 mm 5 m/s 727 mmHg 66%
12:00 +12°C° 0 mm 4 m/s 727 mmHg 64%
13:00 +12°C° 0 mm 4 m/s 727 mmHg 61%
14:00 +12°C° 0 mm 4 m/s 727 mmHg 63%
15:00 +12°C° 0 mm 4 m/s 727 mmHg 64%
16:00 +12°C° 0 mm 4 m/s 726 mmHg 66%
17:00 +11°C° 0 mm 4 m/s 726 mmHg 71%
18:00 +10°C° 0 mm 3 m/s 726 mmHg 76%
19:00 +8°C° 0 mm 3 m/s 726 mmHg 82%
20:00 +8°C° 0 mm 3 m/s 726 mmHg 83%
21:00 +8°C° 0 mm 3 m/s 726 mmHg 84%
22:00 +8°C° 0 mm 3 m/s 727 mmHg 86%
23:00 +7°C° 0 mm 3 m/s 727 mmHg 86%

Poimâine, 12 Aprilie, Luni

Timp Temperatura Precipitaţii Vânt Presiune Umiditate
00:00 +7°C° 0 mm 2 m/s 727 mmHg 87%
01:00 +7°C° 0 mm 2 m/s 727 mmHg 88%
02:00 +7°C° 0 mm 2 m/s 727 mmHg 88%
03:00 +8°C° 0 mm 1 m/s 727 mmHg 87%
04:00 +7°C° 0 mm 1 m/s 727 mmHg 87%
05:00 +8°C° 0 mm 1 m/s 727 mmHg 88%
06:00 +7°C° 0 mm 2 m/s 728 mmHg 89%
07:00 +8°C° 0 mm 2 m/s 728 mmHg 89%
08:00 +8°C° 0 mm 2 m/s 728 mmHg 89%
09:00 +8°C° 0 mm 3 m/s 729 mmHg 89%
10:00 +8°C° 0 mm 3 m/s 729 mmHg 89%
11:00 +7°C° 0 mm 3 m/s 729 mmHg 89%
12:00 +5°C° 0 mm 3 m/s 730 mmHg 89%
13:00 +4°C° 0 mm 4 m/s 730 mmHg 90%
14:00 +4°C° 0.1 mm 4 m/s 730 mmHg 91%
15:00 +3°C° 0.1 mm 4 m/s 730 mmHg 92%
16:00 +1°C° 0.1 mm 4 m/s 730 mmHg 94%
17:00 +1°C° 0.4 mm 4 m/s 731 mmHg 94%
18:00 +1°C° 0.4 mm 4 m/s 731 mmHg 95%
19:00 0°C° 0.4 mm 4 m/s 732 mmHg 96%
20:00 0°C° 1 mm 4 m/s 732 mmHg 97%
21:00 -1°C° 1 mm 5 m/s 732 mmHg 97%
22:00 -1°C° 1 mm 5 m/s 733 mmHg 97%
23:00 -1°C° 0.9 mm 4 m/s 733 mmHg 97%

13 Aprilie, Marţi

Timp Temperatura Precipitaţii Vânt Presiune Umiditate
00:00 -1°C° 0.9 mm 4 m/s 733 mmHg 97%
01:00 -2°C° 0.9 mm 4 m/s 733 mmHg 98%
02:00 -1°C° 0.6 mm 3 m/s 734 mmHg 97%
03:00 -1°C° 0.6 mm 3 m/s 734 mmHg 96%
04:00 -1°C° 0.6 mm 2 m/s 734 mmHg 96%
05:00 -1°C° 0.1 mm 3 m/s 734 mmHg 93%
06:00 -1°C° 0.1 mm 3 m/s 734 mmHg 91%
07:00 -1°C° 0.1 mm 3 m/s 735 mmHg 89%
08:00 -1°C° 0 mm 4 m/s 735 mmHg 85%
09:00 0°C° 0 mm 4 m/s 735 mmHg 81%
10:00 0°C° 0 mm 4 m/s 735 mmHg 78%
11:00 +1°C° 0.1 mm 4 m/s 735 mmHg 73%
12:00 +2°C° 0.1 mm 5 m/s 735 mmHg 69%
13:00 +2°C° 0.1 mm 5 m/s 734 mmHg 65%
14:00 +3°C° 0 mm 4 m/s 734 mmHg 66%
15:00 +3°C° 0 mm 4 m/s 734 mmHg 66%
16:00 +4°C° 0 mm 4 m/s 734 mmHg 66%
17:00 +3°C° 0 mm 3 m/s 734 mmHg 70%
18:00 +2°C° 0 mm 3 m/s 734 mmHg 73%
19:00 +2°C° 0 mm 2 m/s 734 mmHg 76%
20:00 +2°C° 0 mm 2 m/s 734 mmHg 78%
21:00 +1°C° 0 mm 2 m/s 734 mmHg 81%
22:00 +1°C° 0 mm 2 m/s 734 mmHg 83%
23:00 +1°C° 0 mm 2 m/s 734 mmHg 85%

14 Aprilie, Miercuri

Timp Temperatura Precipitaţii Vânt Presiune Umiditate
00:00 +1°C° 0 mm 2 m/s 734 mmHg 86%
01:00 -1°C° 0 mm 2 m/s 734 mmHg 88%
02:00 -1°C° 0 mm 2 m/s 734 mmHg 90%
03:00 -1°C° 0 mm 2 m/s 734 mmHg 91%
04:00 -1°C° 0 mm 2 m/s 734 mmHg 93%
05:00 -1°C° 0.2 mm 3 m/s 734 mmHg 92%
06:00 0°C° 0.2 mm 3 m/s 734 mmHg 91%
07:00 0°C° 0.2 mm 3 m/s 735 mmHg 91%
08:00 0°C° 0.1 mm 4 m/s 735 mmHg 85%
09:00 +1°C° 0.1 mm 4 m/s 735 mmHg 80%
10:00 +1°C° 0.1 mm 5 m/s 734 mmHg 75%
11:00 +2°C° 0.2 mm 5 m/s 734 mmHg 71%
12:00 +2°C° 0.2 mm 5 m/s 734 mmHg 67%
13:00 +3°C° 0.2 mm 5 m/s 734 mmHg 64%
14:00 +3°C° 0.1 mm 5 m/s 734 mmHg 62%
15:00 +3°C° 0.1 mm 5 m/s 734 mmHg 61%
16:00 +3°C° 0.1 mm 5 m/s 733 mmHg 60%
17:00 +3°C° 0 mm 4 m/s 733 mmHg 64%
18:00 +2°C° 0 mm 3 m/s 733 mmHg 68%
19:00 +1°C° 0 mm 2 m/s 733 mmHg 72%
20:00 +1°C° 0 mm 2 m/s 734 mmHg 75%
21:00 +1°C° 0 mm 2 m/s 734 mmHg 79%
22:00 +1°C° 0 mm 2 m/s 734 mmHg 82%
23:00 -1°C° 0 mm 2 m/s 734 mmHg 84%

15 Aprilie, Joi

Timp Temperatura Precipitaţii Vânt Presiune Umiditate
00:00 -1°C° 0 mm 2 m/s 734 mmHg 87%
01:00 -1°C° 0 mm 2 m/s 734 mmHg 89%
02:00 -2°C° 0 mm 3 m/s 734 mmHg 89%
03:00 -2°C° 0 mm 3 m/s 734 mmHg 88%
04:00 -2°C° 0 mm 3 m/s 734 mmHg 88%
05:00 -2°C° 0 mm 3 m/s 734 mmHg 84%
06:00 -3°C° 0 mm 4 m/s 734 mmHg 80%
07:00 -2°C° 0 mm 4 m/s 734 mmHg 76%
08:00 -2°C° 0 mm 5 m/s 734 mmHg 72%
09:00 -1°C° 0 mm 5 m/s 734 mmHg 68%
10:00 -1°C° 0 mm 6 m/s 735 mmHg 64%
11:00 -1°C° 0 mm 6 m/s 734 mmHg 65%
12:00 +1°C° 0 mm 6 m/s 734 mmHg 66%
13:00 +1°C° 0 mm 6 m/s 734 mmHg 67%
14:00 +1°C° 0.3 mm 6 m/s 734 mmHg 74%
15:00 -1°C° 0.3 mm 6 m/s 734 mmHg 80%
16:00 0°C° 0.3 mm 5 m/s 734 mmHg 86%
17:00 0°C° 0.4 mm 5 m/s 734 mmHg 90%
18:00 -1°C° 0.4 mm 4 m/s 734 mmHg 93%
19:00 0°C° 0.4 mm 3 m/s 734 mmHg 97%
20:00 0°C° 0.5 mm 3 m/s 734 mmHg 97%
21:00 0°C° 0.5 mm 3 m/s 734 mmHg 97%
22:00 -1°C° 0.5 mm 4 m/s 734 mmHg 98%
23:00 0°C° 0.5 mm 3 m/s 734 mmHg 98%
Arată mai mult

Formular de consimțământ

Meteoprog și furnizorii noștri de servicii pot stoca și accesa date personale, precum cookies, identificatori de dispozitiv sau alte tehnologii similare pe dispozitivul dumneavoastră și procesa astfel de date pentru a personaliza conținutul și reclamele, dar și pentru a oferi caracteristici de social media și pentru a analiza traficul.

  • Stocarea și/sau accesarea informațiilor pe dispozitivul dumneavoastră

    Cookies, identificatori de dispozitiv sau alte informații pot fi stocate sau accesate pe dispozitiv în scopurile indicate mai sus.

  • Reclame și conținut personalizat, evaluarea reclamelor și a conținutului, informații despre audiențe și dezvoltarea produselor

    Reclamele și conținutul pot fi personalizate pe baza unui profil. Pot fi adăugate date suplimentare pentru a personaliza mai bine reclamele și conținutul. Performanța reclamelor și conținutului poate fi măsurată. Pot fi obținute informații despre utilizatorii care au văzut reclamele și conținutul. Aceste date pot fi utilizate pentru a dezvolta sau îmbunătăți experiența utilizatorilor, sistemele și software-ul.

Dând clic pe ‘Sunt de acord’, permiteți utilizarea cookie-urilor menționate, a identificatorilor de dispozitiv, balizelor web sau altor tehnologii similare. Setările pot fi modificate din browser-ul dispozitivului dumneavoastră.

În anumite scopuri, interesele legitime pot prima asupra consimțământului. Puteți citi mai multe informații în acest sens în Politica privind Confidențialitatea Datelor și Cookie.